Find Starlink 36900

NORAD ID: 67973 Int'l Des: 2026-038 Owner: SPXS Country: US Constellation: starlink operational
LEOCIRCULARRETROGRADE

Live Position

Loading 3D Globe...

About Starlink 36900

Description loading...

Upcoming Passes

Passes for default location (London). Set your location on the main map for personalized predictions.

Altitude History

Loading altitude history...

Two-Line Element Set

1 67973U 26038N 26104.28015190 .00010755 00000-0 32626-3 0 9990
2 67973 97.2842 114.8862 0002017 96.6246 263.5226 15.34283568 8693
Epoch: Apr 14, 2026 • Age: 26 hours

Current Status

Altitude 471.0 km
Velocity 7.63 km/s
Sub-Earth Point -19.52°S, 39.67°W
Launch Date Feb 25, 2026
Age 0.1 years
Type internet

Technical Details

Classification Payload
Mass 575.00 kg
Dry Mass 530.00 kg
Total Mass 575.00 kg
Length 0.30 m
Diameter 4.10 m
Span 29.00 m
Shape Box + pan
Manufacturer SPXS
Bus Type Starlink V2MO
Phase Status In Orbit
Owner/State SPXS/US

Most Searched